Regional Weather Roundup
Issued by NWS

Home | Current Version | Previous Version | Graphics & Text | Print | Product List | Glossary Off
Versions: 1 2 3 4 5 6 7 8 9 10 11 12 13 14 15 16 17 18 19 20 21 22 23 24 25 26 27 28 29 30 31 32 33 34 35 36 37 38 39 40 41 42 43 44 45 46 47 48 49 50

000
ASUS43 KTOP 222208
RWRKS

WEATHER ROUNDUP FOR KANSAS
NATIONAL WEATHER SERVICE GOODLAND KS
500 PM CDT MON SEP 22 2014

NOTE:  "FAIR" INDICATES FEW OR NO CLOUDS BELOW 12,000 FEET WITH NO
SIGNIFICANT WEATHER AND/OR OBSTRUCTIONS TO VISIBILITY.

KSZ001>006-013>018-027>032-041>047-222300-
NORTHWEST KANSAS

CITY           SKY/WX    TMP DP  RH WIND       PRES   REMARKS
GOODLAND       CLOUDY    75  51  43 S18G28    30.13F
HAYS           PTSUNNY   77  45  31 S14       30.18F
HILL CITY      MOSUNNY   78  44  29 S16G23    30.15F
RUSSELL        MOSUNNY   74  46  36 S9        30.18F
$$

KSZ061>065-074>080-084>089-222300-
SOUTHWEST KANSAS

CITY           SKY/WX    TMP DP  RH WIND       PRES   REMARKS
DODGE CITY     MOSUNNY   80  42  25 S16G24    30.19F
ELKHART          N/A     78  54  43 S15         N/A
GARDEN CITY    PTSUNNY   76  45  33 S17G25    30.16F
GREAT BEND     MOSUNNY   79  43  27 S14       30.18F
LIBERAL        MOSUNNY   81  52  36 S16       30.18F
PRATT          SUNNY     79  37  22 SE9       30.21F HAZE
$$

KSZ066>073-081>083-090>101-222300-
SOUTHEAST KANSAS

CITY           SKY/WX    TMP DP  RH WIND       PRES   REMARKS
CHANUTE        MOSUNNY   73  52  47 E3        30.23F
COFFEYVILLE    SUNNY     75  52  44 VRB3      30.21F
HUTCHINSON     SUNNY     79  44  28 S7        30.20F
MEDICINE LODGE   N/A     78  43  28 S10       30.18F
NEWTON         SUNNY     75  45  33 S8        30.23F
PARSONS        SUNNY     74  53  48 NE5       30.23F
WICHITA INTL   MOSUNNY   79  43  27 VRB6      30.20F
WICHITA JABRA  SUNNY     78  44  29 SE9       30.20F
WICHITA MCCONL SUNNY     78  41  26 E7        30.21F
WINFIELD       SUNNY     76  48  37 SE9       30.21F
$$

KSZ007>012-019>026-033>040-048>060-102>105-222300-
NORTHEAST KANSAS

CITY           SKY/WX    TMP DP  RH WIND       PRES   REMARKS
CONCORDIA      MOSUNNY   73  50  44 S9        30.20F
EMPORIA        MOSUNNY   73  50  44 E7        30.22F
LAWRENCE       SUNNY     74  49  41 SE6       30.23F
MANHATTAN      MOSUNNY   74  48  39 SW8       30.21F
MARYSVILLE     MOSUNNY   73  50  43 S7        30.21F
OLATHE IND     SUNNY     72  51  47 E5        30.24F
OLATHE EXE     SUNNY     72  51  47 S5        30.23F
SALINA         MOSUNNY   76  47  35 S7        30.21F
TOPEKA BILLARD SUNNY     76  49  38 E6        30.22F
TOPEKA FORBES  MOSUNNY   75  50  41 SE5       30.22F
$$



USA.gov is the U.S. government's official web portal to all federal, state and local government web resources and services.